FW6569 Weather Reports


time (UTC)temp
C
wind
direction
speed
KPH
gust
KPH
rain 1hr
cm
rain 24hr
cm
rain mn
cm
humidity
%
barometer
mb
20260504034524 12 193 8.0 11.3 0.00 0.00 0.00 60 1013.2
20260504033524 12 183 9.7 12.9 0.00 0.00 0.00 59 1013.2
20260504032545 12 191 9.7 12.9 0.00 0.00 0.00 60 1013.3
20260504031544 12 193 8.0 11.3 0.00 0.00 0.00 60 1013.3
20260504030525 13 190 8.0 11.3 0.00 0.00 0.00 59 1013.4
20260504025525 13 203 8.0 11.3 0.00 0.00 0.00 58 1013.4
20260504024525 13 192 8.0 11.3 0.00 0.00 0.00 58 1013.4
20260504023525 13 194 9.7 12.9 0.00 0.00 0.00 57 1013.4
20260504022524 13 206 11.3 14.5 0.00 0.00 0.00 56 1013.4
20260504021524 13 203 9.7 12.9 0.00 0.00 0.00 57 1013.4
20260504020525 13 201 11.3 12.9 0.00 0.00 0.00 56 1013.3
20260504015524 13 196 11.3 19.3 0.00 0.00 0.00 56 1013.1
20260504014525 13 206 11.3 14.5 0.00 0.00 0.00 57 1013.1
20260504013605 13 213 11.3 16.1 0.00 0.00 0.00 57 1013.0
20260504012525 13 207 11.3 16.1 0.00 0.00 0.00 59 1013.0
20260504011525 13 197 11.3 17.7 0.00 0.00 0.00 59 1012.9
20260504010525 13 197 11.3 14.5 0.00 0.00 0.00 59 1013.1
20260504005525 12 193 9.7 12.9 0.00 0.00 0.00 61 1013.1
20260504004525 12 197 8.0 12.9 0.00 0.00 0.00 63 1012.9
20260504003525 12 194 11.3 14.5 0.00 0.00 0.00 66 1012.7
20260504002545 12 186 9.7 12.9 0.00 0.00 0.00 66 1013.0
20260504001525 13 204 11.3 17.7 0.00 0.00 0.00 60 1013.3
20260504000525 13 209 14.5 17.7 0.00 0.00 0.00 61 1013.7
20260503235525 13 191 11.3 17.7 0.00 0.00 0.00 58 1013.3
20260503234525 13 201 11.3 14.5 0.00 0.00 0.00 55 1013.2
20260503233525 14 200 9.7 11.3 0.00 0.00 0.00 53 1013.5
20260503232525 15 178 9.7 12.9 0.00 0.00 0.00 49 1013.4
20260503231545 15 188 11.3 14.5 0.00 0.00 0.00 48 1013.5
20260503230525 15 183 12.9 17.7 0.00 0.00 0.00 47 1013.4
20260503225525 15 202 14.5 20.9 0.00 0.00 0.00 46 1013.4
20260503224525 15 199 17.7 29.0 0.00 0.00 0.00 45 1013.6
20260503223545 15 209 17.7 27.4 0.00 0.00 0.00 44 1013.9
20260503222525 16 200 12.9 14.5 0.00 0.00 0.00 44 1013.8
20260503221525 16 202 16.1 20.9 0.00 0.00 0.00 43 1013.8
20260503220525 16 207 20.9 27.4 0.00 0.00 0.00 42 1014.1
20260503215525 16 213 12.9 17.7 0.00 0.00 0.00 42 1014.2
20260503214525 16 205 16.1 22.5 0.00 0.00 0.00 42 1014.4
20260503213525 16 209 17.7 27.4 0.00 0.00 0.00 40 1014.7
20260503212525 16 198 17.7 25.7 0.00 0.00 0.00 39 1015.0
20260503211525 17 210 16.1 22.5 0.00 0.00 0.00 39 1015.2
20260503210525 17 217 16.1 22.5 0.00 0.00 0.00 39 1015.3
20260503205545 17 216 19.3 27.4 0.00 0.00 0.00 38 1015.4
20260503204525 16 203 17.7 22.5 0.00 0.00 0.00 38 1015.5
20260503203526 17 190 16.1 24.1 0.00 0.00 0.00 38 1015.5
20260503202525 17 218 16.1 27.4 0.00 0.00 0.00 38 1015.7
20260503201525 17 216 16.1 22.5 0.00 0.00 0.00 38 1016.0
20260503200526 17 218 14.5 24.1 0.00 0.00 0.00 37 1016.0
20260503195545 17 200 20.9 32.2 0.00 0.00 0.00 37 1016.0
20260503194525 17 198 17.7 20.9 0.00 0.00 0.00 36 1016.1
20260503193525 17 205 14.5 25.7 0.00 0.00 0.00 37 1016.4
20260503192546 16 197 19.3 27.4 0.00 0.00 0.00 38 1016.5
20260503191546 16 213 20.9 29.0 0.00 0.00 0.00 38 1016.7
20260503190545 15 215 17.7 25.7 0.00 0.00 0.00 38 1017.1
20260503185525 16 215 20.9 27.4 0.00 0.00 0.00 37 1017.2
20260503184526 16 203 19.3 33.8 0.00 0.00 0.00 39 1017.6
20260503183525 16 239 12.9 19.3 0.00 0.00 0.00 37 1017.8
20260503182526 16 218 20.9 29.0 0.00 0.00 0.00 38 1017.9
20260503181526 16 208 14.5 20.9 0.00 0.00 0.00 39 1018.1
20260503180526 16 232 14.5 24.1 0.00 0.00 0.00 38 1018.1
20260503175546 15 207 16.1 29.0 0.00 0.00 0.00 39 1018.2
20260503174526 15 208 19.3 29.0 0.00 0.00 0.00 37 1018.2
20260503173526 16 220 12.9 16.1 0.00 0.00 0.00 39 1018.4
20260503172526 15 229 12.9 20.9 0.00 0.00 0.00 38 1018.6
20260503171526 15 212 17.7 27.4 0.00 0.00 0.00 38 1018.7
20260503170526 15 207 14.5 24.1 0.00 0.00 0.00 38 1018.8
20260503150526 13 225 8.0 14.5 0.00 0.00 0.00 48 1020.5
20260503130526 8 229 8.0 12.9 0.00 0.00 0.00 63 1020.5
20260503110526 1 194 3.2 4.8 0.00 0.00 0.00 92 1019.8
20260503081526 0 0.0 0.0 0.00 0.00 0.00 96 1019.2
20260503080527 0 0.0 0.0 0.00 0.00 0.00 95 1019.3
20260503072526 0 0.0 0.0 0.00 0.00 0.00 95 1019.3
20260503071527 0 0.0 0.0 0.00 0.00 0.00 95 1019.2
20260503070547 0 0.0 0.0 0.00 0.00 0.00 94 1019.2
20260503054527 0 0.0 0.0 0.00 0.00 0.00 93 1019.8
20260503053547 1 0.0 0.0 0.00 0.00 0.00 93 1019.8
20260503052526 1 0.0 0.0 0.00 0.00 0.00 93 1019.9
20260503051547 1 0.0 0.0 0.00 0.00 0.00 93 1019.8
20260503050526 1 0.0 0.0 0.00 0.00 0.00 92 1019.7
20260503045527 1 0.0 0.0 0.00 0.00 0.00 92 1019.7
20260503044527 1 0.0 0.0 0.00 0.00 0.00 92 1019.7
20260503043527 1 0.0 0.0 0.00 0.00 0.00 92 1019.6
20260503042527 1 0.0 0.0 0.00 0.00 0.00 91 1019.6
20260503041526 1 0.0 0.0 0.00 0.00 0.00 91 1019.6
20260503040526 1 0.0 0.0 0.00 0.00 0.00 87 1019.7
20260503035527 1 0.0 0.0 0.00 0.00 0.00 86 1019.7